www.pogodaiklimat.ru
Время
(UTC), дата
12 8.10
15 8.10
18 8.10
21 8.10
00 9.10
03 9.10
06 9.10
09 9.10
12 9.10
15 9.10
18 9.10
21 9.10
00 10.10
03 10.10
06 10.10
09 10.10
12 10.10
15 10.10
18 10.10
21 10.10
00 11.10
03 11.10
06 11.10
09 11.10
12 11.10
15 11.10
18 11.10
21 11.10
00 12.10
03 12.10
06 12.10
09 12.10
12 12.10
15 12.10
18 12.10
21 12.10
00 13.10
03 13.10
06 13.10
09 13.10
12 13.10
15 13.10
18 13.10
21 13.10
00 14.10
03 14.10
06 14.10
09 14.10
12 14.10
15 14.10
18 14.10
21 14.10
00 15.10
03 15.10
Ветер
(напр.,м/с)
Видим. Явления Облачность Т
(С)
Тd
(С)
f
(%)
Тe
(С)
Тes
(С)
Комфортность P
(гПа)
Po
(гПа)
Тmin
(С)
Tmax
(С)
R
(мм)
R24
(мм)
S
(см)
В 3 10 км 10/0
[Ac trans Ci fib]
+2.1 -0.8 81 -2 -2 по сезону 1025.9 1024.2
ЮВ 3 10 км 9/0
[Ac trans]
+2.0 -1.0 80 -2 -2 по сезону 1025.2 1023.5 +2.1
ЮВ 3 10 км 8/0
[Ci fib]
+1.3 -1.3 83 -3 -3 прохладно 1024.8 1023.0
В 4 10 км 6/3 1000 м
[Sc Ci fib]
+1.7 -1.3 80 -3 -3 прохладно 1023.4 1021.6
В 4 10 км 6/0
[Ac trans]
+2.2 -1.2 78 -3 -3 прохладно 1022.1 1020.3
В 5 10 км 8/0
[Ac trans Ci fib]
+2.3 -0.9 79 -3 -3 прохладно 1021.6 1019.8 +1.3
ЮВ 4 10 км 9/0
[Ac trans Ci fib]
+4.4 -0.1 73 0 +1 по сезону 1021.2 1019.4
В 3 10 км 10/0
[Ci fib]
+6.3 +0.9 68 +3 +4 по сезону 1019.8 1018.1
В 3 10 км 6/0
[Ci fib]
+5.6 +1.3 74 +2 +2 по сезону 1019.3 1017.5
ЮВ 4 10 км 8/0
[Ac trans Ci fib]
+4.7 +1.1 77 +1 +1 по сезону 1018.5 1016.7 +6.9
ЮВ 4 10 км 8/0
[Ac trans]
+4.9 +1.3 77 +1 +1 по сезону 1017.8 1016.0
В 4 10 км 9/0
[Ac trans]
+4.9 +1.0 76 +1 +1 по сезону 1016.1 1014.4
В 6-10
{11}
10 км 9/0
[Ac trans]
+4.2 -0.1 74 -1 -1 по сезону 1013.7 1012.0
В 7-11
{13}
10 км 10/3 600 м
[Cb cap Ac trans Ci fib]
+4.5 -0.2 72 -1 -1 по сезону 1012.2 1010.4 +4.1
ЮВ 6-10
{11}
10 км 9/3 1000 м
[Sc Ac und]
+5.8 +0.5 69 +1 +1 по сезону 1010.7 1009.0
ЮВ 5
{12}
10 км слаб. дождь 10/10 1500 м
[Sc]
+6.8 +2.1 72 +3 +3 по сезону 1010.0 1008.3
ЮВ 5-10
{11}
10 км {дождь} 9/9 1000 м
[Sc]
+7.9 +2.5 69 +4 +4 по сезону 1010.1 1008.4
ЮВ 5
{10}
10 км в посл. час дождь 10/10 600 м
[Sc]
+7.7 +5.2 84 +4 +4 по сезону 1011.2 1009.5 +8.1 0.6
ЮЗ 2 10 км {дождь} 10/10 700 м
[Sc]
+5.8 +2.5 79 +3 +3 по сезону 1013.7 1011.9
Ю 1 10 км 10/6 630 м
[Sc Ci fib]
+2.7 -0.1 82 +1 +1 по сезону 1015.8 1014.0
Ю 1 10 км 10/5 600 м
[Sc Ci fib]
+2.1 -0.2 85 0 0 по сезону 1017.1 1015.4
Ю 1 10 км 10/10 480 м
[Sc]
+2.1 -0.5 83 0 0 по сезону 1018.1 1016.3 +1.8
Ю 1 10 км 8/0
[Ac trans]
+3.3 -0.4 77 +2 +3 по сезону 1018.7 1016.9
Ю 1 10 км 8/0
[Ac trans]
+3.8 -0.5 73 +3 +3 по сезону 1018.9 1017.1
Ю 1 10 км 6/0
[Ac trans Ci fib]
+2.4 -1.2 77 +1 +1 по сезону 1019.3 1017.5
Ю 1 10 км 6/0
[Ci fib]
+0.2 -1.9 86 -2 -2 по сезону 1019.3 1017.5 +4.6
Ю 2 10 км 3/0
[Ci fib]
-1.2 -2.7 90 -5 -5 холодно 1019.1 1017.3
ЮВ 2 10 км 3/0
[Ci fib]
-2.4 -3.1 95 -7 -7 холодно 1018.5 1016.7
ЮВ 2 500 м туман н/о -2.8 -3.1 98 -7 -7 холодно 1018.4 1016.6
ЮВ 3 10 км {туман} 10/10 90 м
[St]
-2.6 -2.9 98 -8 -8 очень
холодно
1017.3 1015.5 -3.6
ЮВ 3 10 км {туман} 9/0
[Ac und]
-0.8 -1.4 96 -6 -5 холодно 1016.1 1014.3
В 3 10 км слаб. снег 10/10 240 м
[Sc]
+1.0 -0.2 92 -4 -4 прохладно 1014.1 1012.3
ЮВ 3 10 км в посл. час ливневой снег 10/10 180 м
[Cb cap]
+1.1 +0.3 94 -4 -4 прохладно 1012.0 1010.3
ЮВ 3 10 км слаб. морось 10/10 150 м
[St]
+1.5 +0.9 96 -3 -3 прохладно 1010.6 1008.8 +1.6 0.5
Ю 1 10 км слаб. морось 10/10 150 м
[St]
+2.5 +2.0 96 +1 +1 по сезону 1009.5 1007.7
Ю 2 10 км {морось} 10/10 90 м
[St]
+2.6 +2.1 97 -1 -1 по сезону 1009.3 1007.5
Ю 1 10 км {морось} 10/10 60 м
[St]
+2.9 +2.5 97 +1 +1 по сезону 1009.2 1007.4
Ю 1 2000 м слаб. морось {туман} 10/10 60 м
[St]
+3.4 +3.0 97 +2 +2 по сезону 1008.9 1007.2 +1.6 1
Ю 1 4000 м слаб. дождь {морось} 10/10 90 м
[Sc]
+4.8 +4.4 97 +3 +3 по сезону 1008.1 1006.4
ЮЗ 1 2000 м слаб. морось {дождь} 10/10 90 м
[St]
+5.6 +5.1 97 +4 +4 по сезону 1008.0 1006.3
ЮЗ 2 10 км {дождь, морось} 10/10 180 м
[Cb cap]
+2.7 +2.2 97 -1 -1 по сезону 1009.5 1007.7
ЮЗ 1 10 км 10/10 300 м
[Sc]
+1.7 +0.9 94 -0 -0 по сезону 1009.8 1008.0 +5.8 1
В 2 10 км 9/9 600 м
[Sc]
+1.5 +1.0 96 -2 -2 по сезону 1008.7 1006.9
В 2 10 км 10/10 600 м
[Sc]
+2.2 +1.6 96 -1 -1 по сезону 1007.1 1005.4
В 3 10 км 10/10 1000 м
[Sc]
+2.9 +2.1 94 -1 -1 по сезону 1005.1 1003.4
В 3 500 м туман {дождь} ?/? +1.9 +1.4 96 -3 -3 прохладно 1002.7 1001.0 +1.5 0.3
В 2 1000 м дымка {дождь, туман} 10/10 60 м
[St]
+3.5 +3.2 98 0 0 по сезону 1000.5 998.8
В 2 10 км слаб. дождь 10/0 300 м
[Sc]
+5.4 +4.9 97 +3 +3 по сезону 998.7 997.0
СВ 2 10 км слаб. дождь 10/10 480 м
[Sc]
+4.9 +4.2 95 +2 +2 по сезону 997.2 995.5
В 2 10 км слаб. дождь 10/10 150 м
[Sc]
+4.8 +4.1 95 +2 +2 по сезону 995.6 993.9 +5.6 2
СВ 2 10 км слаб. дождь 10/10 120 м
[Sc]
+4.6 +4.0 96 +2 +2 по сезону 993.6 991.9
СВ 2 10 км слаб. дождь 10/10 150 м
[Sc]
+3.9 +3.4 97 +1 +1 по сезону 992.1 990.4
СВ 1 10 км слаб. дождь 10/10 180 м
[Sc]
+3.5 +3.1 97 +2 +2 по сезону 991.2 989.5
штиль 0 500 м туман {дождь} н/о +3.4 +3.0 97 +2 +2 по сезону 990.8 989.1 +3.3
Местоположение метеостанции Надым (Ямало-Ненецкий АО, Россия): широта 65.47 долгота 72.67 высота над уровнем моря 19 м.
В архиве по умолчанию представлена погода в Надыме за последнюю неделю. Архивные данные за месяц целиком и за предыдущие месяцы, начиная с января 2011 года, Вы можете получить, выбрав интересующий диапазон дат из раскрывающегося списка и нажав кнопку "Найти!".
*Определитесь, кто Вы:
Внимание! Время в таблицах - всемирное. Для получения местного времени необходимо прибавить поправку, которая равна 5 ч.
Смотрите также архив погоды в соседних городах и на ближайших метеорологических станциях:
Партнеры нашего сайта:      
Пояснения к столбцам:
  • Ветер - указаны скорость ветра в м/с - средняя за 10 мин, порывы в срок и между сроками (в фигурных скобках) и направление, откуда дует ветер: С - северный,
  • СВ - северо-восточный, В - восточный, ЮВ - юго-восточный, Ю - южный, ЮЗ - юго-западный, З - западный, СЗ - северо-западный.
  • Видимость - горизонтальная дальность видимости в метрах или километрах. При видимости от 1 до 10 км при отсутствии осадков обычно наблюдается дымка, при ухудшении видимости до 1 км и менее - туман. В сухую погоду видимость может ухудшаться дымом, пылью или мглою.
  • Явления - указаны атмосферные явления, наблюдавшиеся в срок или в последний час перед сроком; фигурными скобками обозначены явления, наблюдавшиеся между сроками (за 1-3 часа до срока); квадратными скобками обозначены град или гололедные отложения с указанием их диаметра в мм.
  • Облачность - указаны через наклонную черту общая и нижняя облачность в баллах и высота нижней границы облаков в метрах; квадратными скобками обозначены формы облаков: Ci - перистые, Cs - перисто-слоистые, Cc - перисто-кучевые, Ac - высококучевые, As - высокослоистые, Sc - слоисто-кучевые, Ns - слоисто-дождевые, Cu - кучевые, Cb - кучево-дождевые. Подробнее классификацию облаков см. в Атласе облаков (PDF).
  • T - Температура воздуха - температура, измеренная на высоте 2 м над землей.
  • Td - Температура точки росы - температура, при понижении до которой содержащийся в воздухе водяной пар достигнет насыщения.
  • f - Относительная влажность воздуха - влажноcть воздуха, измеренная на высоте 2 м над землей.
  • Te - Эффективная температура - температура, которую ощущает одетый по сезону человек в тени. Характеристика душности погоды. При расчете учитывается влияние влажности воздуха и скорости ветра на теплоощущения человека.
  • Tes - Эффективная температура на солнце - температура, которую ощущает человек, с поправкой на солнечный нагрев. Характеристика знойности погоды. Зависит от высоты солнца над горизонтом, облачности и скорости ветра. Ночью, в пасмурную погоду, а также при ветре 12 м/с и более поправка равна нулю.
  • P - Атмосферное давление - приведенное к уровню моря атмосферное давление.
  • Po - Атмосферное давление - измеренное на уровне метеостанции атмосферное давление.
  • Tmin - Минимальная температура - минимум температуры воздуха на высоте 2 м над землей.
  • Tmax - Максимальная температура - максимум температуры воздуха на высоте 2 м над землей.
  • R - Количество осадков - Количество выпавших осадков за период времени, мм. При наведении курсора мыши на число - период времени, за который выпало указанное количество осадков.
  • R24 - Количество осадков - Количество выпавших осадков за 24 часа, мм.
  • S - Снежный покров - Высота снежного покрова, см. При наведении курсора мыши на число - состояние снежного покрова и степень покрытия местности в баллах.